CDT,Max TemperatureF,Mean TemperatureF,Min TemperatureF,Max Dew PointF,MeanDew PointF,Min DewpointF,Max Humidity, Mean Humidity, Min Humidity, Max Sea Level PressureIn, Mean Sea Level PressureIn, Min Sea Level PressureIn, Max VisibilityMiles, Mean VisibilityMiles, Min VisibilityMiles, Max Wind SpeedMPH, Mean Wind SpeedMPH, Max Gust SpeedMPH,PrecipitationIn, CloudCover, Events, WindDirDegrees
2013-9-1,91,72,63,72,69,63,99,90,68,29.82,29.78,29.75,10,5,0,12,3,,0.00,5,,230
2013-9-2,91,67,57,70,63,55,99,83,59,29.98,29.89,29.78,10,8,0,15,7,20,0.00,2,,353
2013-9-3,91,62,52,59,56,52,99,82,54,30.09,30.04,29.98,10,10,1,8,2,,0.00,5,,313
2013-9-4,91,64,46,62,55,46,100,77,35,30.14,30.11,30.07,10,8,0,12,2,17,0.00,0,,265
2013-9-5,91,65,50,60,53,46,99,72,36,30.24,30.20,30.12,10,10,3,10,3,,0.00,0,,41
2013-9-6,91,63,46,64,54,45,97,73,39,30.25,30.17,30.05,10,10,7,10,2,,0.00,1,,154
2013-9-7,91,72,58,71,63,57,96,74,39,30.05,29.99,29.91,10,10,10,12,4,17,0.00,2,,211
2013-9-8,91,70,62,68,66,61,98,86,68,30.03,29.99,29.94,10,8,0,15,5,18,0.00,4,,84
2013-9-9,92,78,65,72,68,63,95,73,45,30.00,29.93,29.87,10,10,7,14,8,18,0.00,1,,178
2013-9-10,96,83,70,71,65,58,95,60,28,30.05,30.01,29.93,10,10,5,15,8,22,0.00,0,,224
2013-9-11,96,82,70,71,68,58,96,72,30,30.08,30.03,29.97,10,9,5,23,8,37,0.00,1,,233
2013-9-12,96,68,56,69,61,50,98,76,37,30.05,29.97,29.88,10,9,2,22,7,33,0.00,2,,303
2013-9-13,96,52,41,52,45,40,96,69,45,30.15,30.11,30.05,10,10,10,18,8,26,0.00,3,,13
2013-9-14,96,52,35,48,39,32,99,68,26,30.21,30.14,30.07,10,9,0,8,2,,0.00,0,,163
2013-9-15,96,56,44,58,50,41,97,79,51,30.13,30.07,30.00,10,9,4,9,4,,0.00,5,,139
2013-9-16,96,58,47,55,50,45,98,83,44,30.33,30.27,30.14,10,8,0,12,5,,0.00,4,,23
2013-9-17,96,56,41,51,47,41,97,75,44,30.36,30.27,30.15,10,10,5,12,3,,0.00,0,,105
2013-9-18,96,67,54,67,57,48,98,71,46,30.14,30.07,29.96,10,9,0,16,5,20,0.00,5,,156
2013-9-19,96,68,64,71,67,64,98,96,92,30.03,29.96,29.86,10,8,1,15,8,21,0.00,4,,154
2013-9-20,96,66,58,71,66,55,96,90,77,29.88,29.83,29.78,10,9,2,10,7,,0.00,4,,235
2013-9-21,96,56,46,56,49,45,97,77,46,29.93,29.85,29.78,10,10,10,21,8,26,0.00,2,,305
2013-9-22,96,54,42,51,46,42,98,78,46,30.07,30.00,29.93,10,9,0,13,3,16,0.00,2,,12
2013-9-23,96,54,38,48,44,38,99,74,39,30.13,30.09,30.05,10,9,2,9,4,,0.00,0,,112
2013-9-24,96,56,42,49,46,41,97,71,41,30.10,30.02,29.94,10,10,4,10,5,,0.00,0,,99
2013-9-25,96,58,44,53,48,44,98,76,38,29.97,29.94,29.91,10,8,1,7,4,,0.00,0,,60
2013-9-26,96,59,41,57,48,41,99,75,29,30.10,30.05,29.97,10,7,0,10,2,,0.00,0,,86
2013-9-27,96,60,42,52,46,39,97,64,24,30.20,30.14,30.10,10,10,10,12,4,,0.00,0,,118
2013-9-28,96,66,51,56,53,50,95,64,35,30.14,30.05,29.96,10,10,10,15,7,24,0.00,1,,162
2013-9-29,96,58,45,62,53,44,98,79,53,30.03,30.00,29.95,10,9,0,13,8,25,0.00,5,,333
2013-9-30,96,56,40,57,48,40,100,80,44,30.02,29.97,29.92,10,6,0,12,2,17,0.00,2,,190